Location: Jarosław
(50.0191°N, 22.6835°E)
Time: 00:10:06
(UTC+02:00)

ISS - Pass Details

Date: 22 March 2019
Orbit: 411 x 421 km, 51.6° (Epoch: 23 October)

Event Time Altitude Azimuth Distance (km) Brightness Sun altitude
Rises 19:33:20 0° 231° (SW) 2,354 0.4 -17.7°
Reaches altitude 10° 19:35:29 10° 225° (SW) 1,489 -0.7 -18.0°
Enters shadow 19:38:07 40° 183° (S) 631 -3.1 -18.4°
